OneWeb SL0368

operational
NORAD ID: 49294 Int'l Des: 2021-090 Owner: ONEWEBN Country: UK Constellation: oneweb
LEOCIRCULARPOLARONEWEB_TYPE

关于 OneWeb SL0368

正在加载描述...

实时位置

正在加载3D地球...

即将过境

高度历史

Altitude vs Time

uPlot chart will show altitude changes over time

两行轨道根数

1 49294U 21090R 25352.91083657 -.00000003 00000-0 -38139-4 0 9999
2 49294 87.9201 310.4191 0002656 83.0880 277.0556 13.20771034207180
Epoch: Dec 18, 2025 • Age: 20 hours

当前状态

高度 1183.2 km
速度 7.26 km/s
星下点 15.39°N, 46.82°W
发射日期 Oct 14, 2021
运行时间 4.1 years
类型 internet

技术详情

分类 Payload
质量 148.00 kg
干质量 140.00 kg
总质量 148.00 kg
长度 1.30 m
直径 1.00 m
跨度 5.00 m
形状 Trapezoid+2 pan
制造商 ONEWUS
平台类型 ARROW
阶段状态 In Orbit
所有者/国家 ONEWEBN/UK

大型星座

Loading constellations...